,,,PA_Meas_PMT16A,,PR_Meas_QMR101_102,,RH_Meas_QMH101,,SR_Meas_QMS101,,TA_Meas_QMH101,,GenWind,,GenWind,
date,time,status,PA,status,PR,status,RH,status,SR,status,TA,status,DirAvg,status,SpdAvg,
2010-01-21, 00:00:04,VALID,1002.76,VALID,0,VALID,84.6125,VALID,0,VALID,25.4969,VALID,284,VALID,0,
2010-01-21, 00:01:04,VALID,1002.75,VALID,0,VALID,84.5972,VALID,0,VALID,25.4969,VALID,284,VALID,0,
2010-01-21, 00:02:04,VALID,1002.75,VALID,0,VALID,84.7803,VALID,0,VALID,25.4559,VALID,284,VALID,0.224219,
2010-01-21, 00:03:04,VALID,1002.74,VALID,0,VALID,84.9787,VALID,0,VALID,25.4169,VALID,284,VALID,0,
2010-01-21, 00:04:04,VALID,1002.72,VALID,0,VALID,85.2305,VALID,0,VALID,25.3993,VALID,284,VALID,0,
2010-01-21, 00:05:04,VALID,1002.73,VALID,0,VALID,85.1847,VALID,0,VALID,25.3583,VALID,284,VALID,0,
2010-01-21, 00:06:04,VALID,1002.73,VALID,0,VALID,85.3983,VALID,0,VALID,25.3193,VALID,284,VALID,0,
2010-01-21, 00:07:04,VALID,1002.72,VALID,0,VALID,85.6883,VALID,0,VALID,25.3388,VALID,284,VALID,0,
2010-01-21, 00:08:04,VALID,1002.72,VALID,0,VALID,85.7112,VALID,0,VALID,25.3212,VALID,284,VALID,0,
2010-01-21, 00:09:04,VALID,1002.69,VALID,0,VALID,85.9477,VALID,0,VALID,25.3212,VALID,284,VALID,0,
2010-01-21, 00:10:04,VALID,1002.74,VALID,0,VALID,86.2757,VALID,0,VALID,25.2607,VALID,284,VALID,0,
2010-01-21, 00:11:04,VALID,1002.74,VALID,0,VALID,86.4207,VALID,0,VALID,25.2607,VALID,284,VALID,0,
2010-01-21, 00:12:04,VALID,1002.71,VALID,0,VALID,86.5046,VALID,0,VALID,25.2431,VALID,284,VALID,0,
2010-01-21, 00:13:04,VALID,1002.72,VALID,0,VALID,86.352,VALID,0,VALID,25.2217,VALID,278,VALID,0.198047,
2010-01-21, 00:14:04,VALID,1002.67,VALID,0,VALID,86.1918,VALID,0,VALID,25.2626,VALID,271,VALID,0,
2010-01-21, 00:15:04,VALID,1002.67,VALID,0,VALID,86.0697,VALID,0,VALID,25.2821,VALID,237,VALID,0.525,
2010-01-21, 00:16:04,VALID,1002.66,VALID,0,VALID,86.2605,VALID,0,VALID,25.3212,VALID,237,VALID,0.272656,
2010-01-21, 00:17:04,VALID,1002.67,VALID,0,VALID,87.1226,VALID,0,VALID,25.3621,VALID,176,VALID,0.404297,
2010-01-21, 00:18:04,VALID,1002.7,VALID,0,VALID,87.6338,VALID,0,VALID,25.3212,VALID,171,VALID,0.689062,
2010-01-21, 00:19:04,VALID,1002.66,VALID,0,VALID,88.0306,VALID,0,VALID,25.2821,VALID,169,VALID,0.658203,
2010-01-21, 00:20:04,VALID,1002.67,VALID,0,VALID,88.1374,VALID,0,VALID,25.2236,VALID,164,VALID,0.562891,
2010-01-21, 00:21:04,VALID,1002.69,VALID,0,VALID,88.2442,VALID,0,VALID,25.165,VALID,164,VALID,0.367969,
2010-01-21, 00:22:04,VALID,1002.69,VALID,0,VALID,88.4044,VALID,0,VALID,25.1241,VALID,164,VALID,0.278906,
2010-01-21, 00:23:04,VALID,1002.7,VALID,0,VALID,88.618,VALID,0,VALID,25.126,VALID,164,VALID,0,
2010-01-21, 00:24:04,VALID,1002.66,VALID,0,VALID,88.763,VALID,0,VALID,25.1064,VALID,164,VALID,0,
2010-01-21, 00:25:04,VALID,1002.69,VALID,0,VALID,88.9003,VALID,0,VALID,25.0869,VALID,164,VALID,0,
2010-01-21, 00:26:04,VALID,1002.7,VALID,0,VALID,89.0453,VALID,0,VALID,25.0479,VALID,164,VALID,0,
2010-01-21, 00:27:04,VALID,1002.69,VALID,0,VALID,89.0834,VALID,0,VALID,25.0284,VALID,164,VALID,0,
2010-01-21, 00:28:04,VALID,1002.71,VALID,0,VALID,89.32,VALID,0,VALID,24.9679,VALID,164,VALID,0.278125,
2010-01-21, 00:29:04,VALID,1002.74,VALID,0,VALID,89.4191,VALID,0,VALID,24.9698,VALID,164,VALID,0.165625,
2010-01-21, 00:30:04,VALID,1002.75,VALID,0,VALID,89.5336,VALID,0,VALID,24.9308,VALID,164,VALID,0,
2010-01-21, 00:31:04,VALID,1002.72,VALID,0,VALID,89.7549,VALID,0,VALID,24.8898,VALID,164,VALID,0.0648438,
2010-01-21, 00:32:04,VALID,1002.72,VALID,0,VALID,89.9609,VALID,0,VALID,24.8917,VALID,164,VALID,0,
2010-01-21, 00:33:04,VALID,1002.68,VALID,0,VALID,90.06,VALID,0,VALID,24.8722,VALID,164,VALID,0.00429688,
2010-01-21, 00:34:04,VALID,1002.66,VALID,0,VALID,89.9456,VALID,0,VALID,24.8117,VALID,190,VALID,0.516016,
2010-01-21, 00:35:04,VALID,1002.65,VALID,0,VALID,88.7859,VALID,0,VALID,24.7922,VALID,251,VALID,0.121484,
2010-01-21, 00:36:04,VALID,1002.64,VALID,0,VALID,88.7401,VALID,0,VALID,24.8332,VALID,159,VALID,0.303125,
2010-01-21, 00:37:04,VALID,1002.66,VALID,0,VALID,88.4502,VALID,0,VALID,24.8332,VALID,156,VALID,0.00820312,
2010-01-21, 00:38:04,VALID,1002.66,VALID,0,VALID,89.4344,VALID,0,VALID,24.8722,VALID,119,VALID,0.676562,
2010-01-21, 00:39:04,VALID,1002.59,VALID,0,VALID,89.8769,VALID,0,VALID,24.8527,VALID,113,VALID,1.27891,
2010-01-21, 00:40:04,VALID,1002.6,VALID,0,VALID,90.1974,VALID,0,VALID,24.8136,VALID,113,VALID,0.814453,
2010-01-21, 00:41:04,VALID,1002.57,VALID,0,VALID,90.3957,VALID,0,VALID,24.7746,VALID,114,VALID,0.951563,
2010-01-21, 00:42:04,VALID,1002.57,VALID,0,VALID,90.5178,VALID,0,VALID,24.7142,VALID,130,VALID,0.713672,
2010-01-21, 00:43:04,VALID,1002.54,VALID,0,VALID,90.5712,VALID,0,VALID,24.6556,VALID,143,VALID,0.768359,
2010-01-21, 00:44:04,VALID,1002.52,VALID,0,VALID,90.6323,VALID,0,VALID,24.6575,VALID,141,VALID,0.573047,
2010-01-21, 00:45:04,VALID,1002.53,VALID,0,VALID,90.7925,VALID,0,VALID,24.6184,VALID,141,VALID,0.356641,
2010-01-21, 00:46:04,VALID,1002.53,VALID,0,VALID,90.8077,VALID,0,VALID,24.5989,VALID,141,VALID,0.112109,
2010-01-21, 00:47:04,VALID,1002.52,VALID,0,VALID,90.7772,VALID,0,VALID,24.558,VALID,141,VALID,0,
2010-01-21, 00:48:04,VALID,1002.52,VALID,0,VALID,90.8764,VALID,0,VALID,24.5599,VALID,109,VALID,0.0589844,
2010-01-21, 00:49:04,VALID,1002.49,VALID,0,VALID,90.8535,VALID,0,VALID,24.5599,VALID,107,VALID,0.9875,
2010-01-21, 00:50:04,VALID,1002.5,VALID,0,VALID,90.7772,VALID,0,VALID,24.5599,VALID,110,VALID,0.852344,
2010-01-21, 00:51:04,VALID,1002.49,VALID,0,VALID,90.8077,VALID,0,VALID,24.519,VALID,110,VALID,0.617969,
2010-01-21, 00:52:04,VALID,1002.46,VALID,0,VALID,90.9069,VALID,0,VALID,24.5404,VALID,110,VALID,0.875,
2010-01-21, 00:53:04,VALID,1002.47,VALID,0,VALID,91.0595,VALID,0,VALID,24.5385,VALID,110,VALID,0.997266,
2010-01-21, 00:54:04,VALID,1002.46,VALID,0,VALID,91.0977,VALID,0,VALID,24.5385,VALID,116,VALID,0.799219,
2010-01-21, 00:55:04,VALID,1002.45,VALID,0,VALID,91.3571,VALID,0,VALID,24.5385,VALID,104,VALID,0.971094,
2010-01-21, 00:56:04,VALID,1002.46,VALID,0,VALID,91.4868,VALID,0,VALID,24.558,VALID,103,VALID,1.01602,
2010-01-21, 00:57:04,VALID,1002.44,VALID,0,VALID,91.5326,VALID,0,VALID,24.5385,VALID,110,VALID,0.740625,
2010-01-21, 00:58:04,VALID,1002.42,VALID,0,VALID,91.5478,VALID,0,VALID,24.519,VALID,109,VALID,0.510547,
2010-01-21, 00:59:04,VALID,1002.45,VALID,0,VALID,91.5631,VALID,0,VALID,24.5209,VALID,101,VALID,0.425781,
2010-01-21, 01:00:04,VALID,1002.4,VALID,0,VALID,91.6012,VALID,0,VALID,24.5013,VALID,100,VALID,0.499219,
2010-01-21, 01:01:04,VALID,1002.39,VALID,0,VALID,91.6775,VALID,0,VALID,24.48,VALID,96,VALID,0.694922,
2010-01-21, 01:02:04,VALID,1002.39,VALID,0,VALID,91.5783,VALID,0,VALID,24.4623,VALID,86,VALID,0.692969,
2010-01-21, 01:03:04,VALID,1002.37,VALID,0,VALID,91.5402,VALID,0,VALID,24.4233,VALID,86,VALID,0.78125,
2010-01-21, 01:04:04,VALID,1002.34,VALID,0,VALID,91.6623,VALID,0,VALID,24.3824,VALID,86,VALID,0.570313,
2010-01-21, 01:05:04,VALID,1002.31,VALID,0,VALID,91.6775,VALID,0,VALID,24.3433,VALID,89,VALID,0.486328,
2010-01-21, 01:06:04,VALID,1002.26,VALID,0,VALID,91.7843,VALID,0,VALID,24.3452,VALID,98,VALID,0.504687,
2010-01-21, 01:07:04,VALID,1002.28,VALID,0,VALID,91.9903,VALID,0,VALID,24.3452,VALID,115,VALID,0.851172,
2010-01-21, 01:08:04,VALID,1002.25,VALID,0,VALID,92.059,VALID,0,VALID,24.3452,VALID,109,VALID,0.916406,
2010-01-21, 01:09:04,VALID,1002.24,VALID,0,VALID,92.1963,VALID,0,VALID,24.3452,VALID,106,VALID,0.937109,
2010-01-21, 01:10:04,VALID,1002.26,VALID,0,VALID,92.2574,VALID,0,VALID,24.3433,VALID,122,VALID,0.84375,
2010-01-21, 01:11:04,VALID,1002.21,VALID,0,VALID,92.2421,VALID,0,VALID,24.3238,VALID,127,VALID,0.597656,
2010-01-21, 01:12:04,VALID,1002.19,VALID,0,VALID,92.2955,VALID,0,VALID,24.3629,VALID,125,VALID,1.04023,
2010-01-21, 01:13:04,VALID,1002.18,VALID,0,VALID,92.3413,VALID,0,VALID,24.4037,VALID,122,VALID,1.15586,
2010-01-21, 01:14:04,VALID,1002.13,VALID,0,VALID,92.2574,VALID,0,VALID,24.3629,VALID,131,VALID,0.765625,
2010-01-21, 01:15:04,VALID,1002.1,VALID,0,VALID,92.1887,VALID,0,VALID,24.4037,VALID,135,VALID,0.850391,
2010-01-21, 01:16:04,VALID,1002.1,VALID,0,VALID,92.1277,VALID,0,VALID,24.4233,VALID,135,VALID,0.700781,
2010-01-21, 01:17:04,VALID,1002.09,VALID,0,VALID,92.0437,VALID,0,VALID,24.4214,VALID,144,VALID,0.483984,
2010-01-21, 01:18:04,VALID,1002.09,VALID,0,VALID,92.0056,VALID,0,VALID,24.4233,VALID,147,VALID,0.744922,
2010-01-21, 01:19:04,VALID,1002.06,VALID,0,VALID,91.9445,VALID,0,VALID,24.4214,VALID,160,VALID,1.02852,
2010-01-21, 01:20:04,VALID,1002.09,VALID,0,VALID,91.8988,VALID,0,VALID,24.4409,VALID,153,VALID,1.04023,
2010-01-21, 01:21:04,VALID,1002.08,VALID,0,VALID,91.8301,VALID,0,VALID,24.4604,VALID,151,VALID,1.39688,
2010-01-21, 01:22:04,VALID,1002.07,VALID,0,VALID,91.8301,VALID,0,VALID,24.48,VALID,144,VALID,1.15,
2010-01-21, 01:23:04,VALID,1002.09,VALID,0,VALID,91.8301,VALID,0,VALID,24.4995,VALID,133,VALID,1.02109,
2010-01-21, 01:24:04,VALID,1002.12,VALID,0,VALID,91.8225,VALID,0,VALID,24.519,VALID,133,VALID,0.764844,
2010-01-21, 01:25:04,VALID,1002.12,VALID,0,VALID,91.8911,VALID,0,VALID,24.5404,VALID,120,VALID,0.747266,
2010-01-21, 01:26:04,VALID,1002.14,VALID,0,VALID,91.853,VALID,0,VALID,24.5385,VALID,118,VALID,0.425391,
2010-01-21, 01:27:04,VALID,1002.17,VALID,0.5,VALID,91.8683,VALID,0,VALID,24.5599,VALID,126,VALID,0.308203,
2010-01-21, 01:28:04,VALID,1002.18,VALID,0,VALID,91.914,VALID,0,VALID,24.5385,VALID,88,VALID,0.385938,
2010-01-21, 01:29:04,VALID,1002.19,VALID,0.5,VALID,91.9293,VALID,0,VALID,24.519,VALID,9,VALID,1.13906,
2010-01-21, 01:30:04,VALID,1002.14,VALID,0,VALID,92.0056,VALID,0,VALID,24.519,VALID,1,VALID,1.0043,
2010-01-21, 01:31:04,VALID,1002.13,VALID,0,VALID,92.1048,VALID,0,VALID,24.519,VALID,1,VALID,0.655859,
2010-01-21, 01:32:04,VALID,1002.1,VALID,0,VALID,92.1582,VALID,0,VALID,24.4995,VALID,1,VALID,0.608594,
2010-01-21, 01:33:04,VALID,1002.05,VALID,0,VALID,92.1124,VALID,0,VALID,24.4818,VALID,1,VALID,0.291797,
2010-01-21, 01:34:04,VALID,1002.04,VALID,0,VALID,92.1582,VALID,0,VALID,24.4818,VALID,1,VALID,0.0320312,
2010-01-21, 01:35:04,VALID,1002.02,VALID,0,VALID,92.1887,VALID,0,VALID,24.4604,VALID,1,VALID,0.35,
2010-01-21, 01:36:04,VALID,1002.01,VALID,0,VALID,92.2497,VALID,0,VALID,24.4409,VALID,1,VALID,0.540625,
2010-01-21, 01:37:04,VALID,1002,VALID,0,VALID,92.2497,VALID,0,VALID,24.4409,VALID,62,VALID,0.571094,
2010-01-21, 01:38:04,VALID,1002.02,VALID,0,VALID,92.3031,VALID,0,VALID,24.4428,VALID,65,VALID,0.653906,
2010-01-21, 01:39:04,VALID,1001.97,VALID,0,VALID,92.265,VALID,0,VALID,24.4214,VALID,90,VALID,1.12656,
2010-01-21, 01:40:04,VALID,1001.97,VALID,0,VALID,92.1963,VALID,0,VALID,24.4214,VALID,62,VALID,0.482812,
2010-01-21, 01:41:04,VALID,1001.97,VALID,0,VALID,92.1277,VALID,0,VALID,24.4428,VALID,62,VALID,0.207031,
2010-01-21, 01:42:04,VALID,1001.95,VALID,0,VALID,92.2116,VALID,0.112286,VALID,24.48,VALID,340,VALID,0.504687,
2010-01-21, 01:43:04,VALID,1001.93,VALID,0,VALID,92.2116,VALID,0,VALID,24.5209,VALID,307,VALID,0.429688,
2010-01-21, 01:44:04,VALID,1001.91,VALID,0,VALID,92.1277,VALID,0,VALID,24.5013,VALID,301,VALID,0.262109,
2010-01-21, 01:45:04,VALID,1001.88,VALID,0,VALID,92.0361,VALID,0,VALID,24.5013,VALID,301,VALID,0.224609,
2010-01-21, 01:46:04,VALID,1001.9,VALID,0,VALID,91.9674,VALID,0,VALID,24.48,VALID,300,VALID,0.00820312,
2010-01-21, 01:47:04,VALID,1001.88,VALID,0,VALID,91.9217,VALID,0,VALID,24.48,VALID,300,VALID,0.0523437,
2010-01-21, 01:48:04,VALID,1001.9,VALID,0,VALID,91.8988,VALID,0,VALID,24.48,VALID,302,VALID,0.389453,
2010-01-21, 01:49:04,VALID,1001.88,VALID,0,VALID,91.853,VALID,0,VALID,24.5209,VALID,303,VALID,0,
2010-01-21, 01:50:04,VALID,1001.82,VALID,0,VALID,91.8225,VALID,0,VALID,24.5013,VALID,273,VALID,0.0742188,
2010-01-21, 01:51:04,VALID,1001.87,VALID,0,VALID,91.7614,VALID,0,VALID,24.4995,VALID,166,VALID,0.576563,
2010-01-21, 01:52:04,VALID,1001.85,VALID,0,VALID,91.7385,VALID,0,VALID,24.5404,VALID,166,VALID,0.325391,
2010-01-21, 01:53:04,VALID,1001.83,VALID,0,VALID,91.7233,VALID,0,VALID,24.5404,VALID,166,VALID,0.0453125,
2010-01-21, 01:54:04,VALID,1001.86,VALID,0,VALID,91.7309,VALID,0,VALID,24.5404,VALID,165,VALID,0.000390625,
2010-01-21, 01:55:04,VALID,1001.81,VALID,0,VALID,91.8072,VALID,0,VALID,24.5385,VALID,92,VALID,0.391797,
2010-01-21, 01:56:04,VALID,1001.83,VALID,0,VALID,91.914,VALID,0,VALID,24.5599,VALID,101,VALID,0.451172,
2010-01-21, 01:57:04,VALID,1001.8,VALID,0,VALID,91.9598,VALID,0,VALID,24.558,VALID,135,VALID,0.741406,
2010-01-21, 01:58:04,VALID,1001.79,VALID,0,VALID,91.8988,VALID,0,VALID,24.5599,VALID,139,VALID,0.423047,
2010-01-21, 01:59:04,VALID,1001.73,VALID,0,VALID,91.8911,VALID,0,VALID,24.558,VALID,133,VALID,0.54375,
2010-01-21, 02:00:04,VALID,1001.76,VALID,0,VALID,91.9674,VALID,0,VALID,24.5599,VALID,208,VALID,0.464063,
2010-01-21, 02:01:04,VALID,1001.71,VALID,0,VALID,92.0209,VALID,0,VALID,24.5775,VALID,214,VALID,0.610156,
2010-01-21, 02:02:04,VALID,1001.71,VALID,0,VALID,91.998,VALID,0,VALID,24.558,VALID,188,VALID,0.544922,
2010-01-21, 02:03:04,VALID,1001.67,VALID,0,VALID,91.8988,VALID,0,VALID,24.558,VALID,177,VALID,0,
2010-01-21, 02:04:04,VALID,1001.66,VALID,0,VALID,91.8835,VALID,0,VALID,24.5385,VALID,169,VALID,0.385938,
2010-01-21, 02:05:04,VALID,1001.61,VALID,0,VALID,91.8911,VALID,0,VALID,24.5385,VALID,122,VALID,0.471094,
2010-01-21, 02:06:04,VALID,1001.64,VALID,0,VALID,91.8911,VALID,0,VALID,24.519,VALID,122,VALID,0.230469,
2010-01-21, 02:07:04,VALID,1001.61,VALID,0,VALID,91.8911,VALID,0,VALID,24.5209,VALID,149,VALID,0.539453,
2010-01-21, 02:08:04,VALID,1001.59,VALID,0,VALID,91.9522,VALID,0,VALID,24.519,VALID,193,VALID,0.871484,
2010-01-21, 02:09:04,VALID,1001.6,VALID,0,VALID,91.8835,VALID,0,VALID,24.5209,VALID,171,VALID,0.684766,
2010-01-21, 02:10:04,VALID,1001.63,VALID,0,VALID,91.8072,VALID,0,VALID,24.5013,VALID,119,VALID,1.35625,
2010-01-21, 02:11:04,VALID,1001.6,VALID,0,VALID,91.7309,VALID,0,VALID,24.48,VALID,154,VALID,0.753516,
2010-01-21, 02:12:04,VALID,1001.58,VALID,0,VALID,91.6546,VALID,0,VALID,24.4995,VALID,138,VALID,0.613281,
2010-01-21, 02:13:04,VALID,1001.61,VALID,0,VALID,91.5631,VALID,0,VALID,24.519,VALID,170,VALID,0.827344,
2010-01-21, 02:14:04,VALID,1001.6,VALID,0,VALID,91.4944,VALID,0,VALID,24.5385,VALID,174,VALID,0.538281,
2010-01-21, 02:15:04,VALID,1001.6,VALID,0,VALID,91.4486,VALID,0,VALID,24.5599,VALID,163,VALID,0.349219,
2010-01-21, 02:16:04,VALID,1001.59,VALID,0,VALID,91.4334,VALID,0,VALID,24.5794,VALID,68,VALID,0.349609,
2010-01-21, 02:17:04,VALID,1001.63,VALID,0,VALID,91.3952,VALID,0,VALID,24.558,VALID,68,VALID,0.288281,
2010-01-21, 02:18:04,VALID,1001.6,VALID,0,VALID,91.38,VALID,0,VALID,24.5989,VALID,68,VALID,0.316016,
2010-01-21, 02:19:04,VALID,1001.62,VALID,0,VALID,91.4486,VALID,0,VALID,24.5775,VALID,68,VALID,0.321484,
2010-01-21, 02:20:04,VALID,1001.6,VALID,0,VALID,91.5402,VALID,0,VALID,24.6184,VALID,68,VALID,0.194922,
2010-01-21, 02:21:04,VALID,1001.61,VALID,0,VALID,91.5554,VALID,0,VALID,24.5971,VALID,68,VALID,0.212891,
2010-01-21, 02:22:04,VALID,1001.59,VALID,0,VALID,91.5326,VALID,0,VALID,24.5989,VALID,68,VALID,0,
2010-01-21, 02:23:04,VALID,1001.58,VALID,0,VALID,91.5631,VALID,0,VALID,24.5775,VALID,68,VALID,0.16875,
2010-01-21, 02:24:04,VALID,1001.59,VALID,0,VALID,91.5326,VALID,0,VALID,24.558,VALID,124,VALID,0.601172,
2010-01-21, 02:25:04,VALID,1001.6,VALID,0,VALID,91.5402,VALID,0,VALID,24.5794,VALID,134,VALID,0.765234,
2010-01-21, 02:26:04,VALID,1001.61,VALID,0,VALID,91.586,VALID,0,VALID,24.5794,VALID,132,VALID,0.459375,
2010-01-21, 02:27:04,VALID,1001.62,VALID,0,VALID,91.5936,VALID,0,VALID,24.5599,VALID,130,VALID,0.819141,
2010-01-21, 02:28:04,VALID,1001.61,VALID,0,VALID,91.6165,VALID,0,VALID,24.519,VALID,129,VALID,0.830469,
2010-01-21, 02:29:04,VALID,1001.58,VALID,0,VALID,91.6165,VALID,0,VALID,24.5209,VALID,124,VALID,1.01484,
2010-01-21, 02:30:04,VALID,1001.59,VALID,0,VALID,91.7233,VALID,0,VALID,24.4995,VALID,119,VALID,0.751562,
2010-01-21, 02:31:04,VALID,1001.62,VALID,0,VALID,91.7843,VALID,0,VALID,24.5209,VALID,132,VALID,0.880859,
2010-01-21, 02:32:04,VALID,1001.61,VALID,0,VALID,91.8225,VALID,0,VALID,24.5013,VALID,126,VALID,0.497656,
2010-01-21, 02:33:04,VALID,1001.64,VALID,0,VALID,91.8301,VALID,0,VALID,24.4818,VALID,131,VALID,0.677734,
2010-01-21, 02:34:04,VALID,1001.63,VALID,0,VALID,91.9064,VALID,0,VALID,24.4818,VALID,149,VALID,0.807813,
2010-01-21, 02:35:04,VALID,1001.63,VALID,0,VALID,91.9598,VALID,0,VALID,24.5013,VALID,147,VALID,0.419922,
2010-01-21, 02:36:04,VALID,1001.65,VALID,0,VALID,91.9369,VALID,0,VALID,24.5013,VALID,140,VALID,0.71875,
2010-01-21, 02:37:04,VALID,1001.66,VALID,0,VALID,91.9674,VALID,0,VALID,24.4818,VALID,131,VALID,0.916406,
2010-01-21, 02:38:04,VALID,1001.66,VALID,0,VALID,91.998,VALID,0,VALID,24.4409,VALID,131,VALID,1.14023,
2010-01-21, 02:39:04,VALID,1001.65,VALID,0,VALID,91.9598,VALID,0,VALID,24.4409,VALID,126,VALID,1.08711,
2010-01-21, 02:40:04,VALID,1001.64,VALID,0,VALID,91.9674,VALID,0,VALID,24.4623,VALID,125,VALID,1.07539,
2010-01-21, 02:41:04,VALID,1001.7,VALID,0,VALID,91.998,VALID,0,VALID,24.4623,VALID,133,VALID,1.025,
2010-01-21, 02:42:04,VALID,1001.67,VALID,0,VALID,92.0209,VALID,0,VALID,24.4428,VALID,128,VALID,1.11992,
2010-01-21, 02:43:04,VALID,1001.7,VALID,0,VALID,92.0437,VALID,0,VALID,24.4214,VALID,121,VALID,0.884375,
2010-01-21, 02:44:04,VALID,1001.74,VALID,0,VALID,92.1048,VALID,0,VALID,24.4428,VALID,123,VALID,0.909375,
2010-01-21, 02:45:04,VALID,1001.73,VALID,0,VALID,92.1658,VALID,0,VALID,24.4428,VALID,125,VALID,0.990234,
2010-01-21, 02:46:04,VALID,1001.74,VALID,0,VALID,92.204,VALID,0,VALID,24.4428,VALID,127,VALID,1.31953,
2010-01-21, 02:47:04,VALID,1001.77,VALID,0,VALID,92.204,VALID,0,VALID,24.4428,VALID,125,VALID,1.07969,
2010-01-21, 02:48:04,VALID,1001.81,VALID,0,VALID,92.2192,VALID,0,VALID,24.4428,VALID,126,VALID,0.714844,
2010-01-21, 02:49:04,VALID,1001.83,VALID,0,VALID,92.2116,VALID,0,VALID,24.4428,VALID,134,VALID,1.20508,
2010-01-21, 02:50:04,VALID,1001.85,VALID,0,VALID,92.1277,VALID,0,VALID,24.4233,VALID,125,VALID,1.38906,
2010-01-21, 02:51:04,VALID,1001.86,VALID,0,VALID,92.12,VALID,0,VALID,24.4428,VALID,125,VALID,1.28398,
2010-01-21, 02:52:04,VALID,1001.88,VALID,0,VALID,92.0971,VALID,0,VALID,24.4428,VALID,128,VALID,1.15469,
2010-01-21, 02:53:04,VALID,1001.89,VALID,0,VALID,92.0971,VALID,0,VALID,24.4428,VALID,122,VALID,1.19687,
2010-01-21, 02:54:04,VALID,1001.9,VALID,0,VALID,92.0895,VALID,0,VALID,24.4428,VALID,122,VALID,1.24102,
2010-01-21, 02:55:04,VALID,1001.9,VALID,0,VALID,92.1048,VALID,0,VALID,24.4428,VALID,127,VALID,1.17617,
2010-01-21, 02:56:04,VALID,1001.89,VALID,0,VALID,92.1048,VALID,0,VALID,24.4428,VALID,126,VALID,1.05703,
2010-01-21, 02:57:04,VALID,1001.92,VALID,0,VALID,92.1277,VALID,0,VALID,24.4428,VALID,123,VALID,0.971484,
2010-01-21, 02:58:04,VALID,1001.92,VALID,0,VALID,92.1429,VALID,0,VALID,24.4428,VALID,123,VALID,0.849609,
2010-01-21, 02:59:04,VALID,1001.95,VALID,0,VALID,92.204,VALID,0,VALID,24.4623,VALID,119,VALID,0.928516,
2010-01-21, 03:00:04,VALID,1001.97,VALID,0,VALID,92.2955,VALID,0,VALID,24.4818,VALID,115,VALID,1.11055,
2010-01-21, 03:01:04,VALID,1001.99,VALID,0,VALID,92.3413,VALID,0,VALID,24.4818,VALID,117,VALID,0.856641,
2010-01-21, 03:02:04,VALID,1002.01,VALID,0,VALID,92.3566,VALID,0,VALID,24.4604,VALID,114,VALID,0.483203,
2010-01-21, 03:03:04,VALID,1001.98,VALID,0,VALID,92.3642,VALID,0,VALID,24.5013,VALID,129,VALID,0.323047,
2010-01-21, 03:04:04,VALID,1002,VALID,0,VALID,92.3871,VALID,0,VALID,24.5013,VALID,131,VALID,0,
2010-01-21, 03:05:04,VALID,1002,VALID,0,VALID,92.4252,VALID,0,VALID,24.5013,VALID,153,VALID,0.390234,
2010-01-21, 03:06:04,VALID,1002.01,VALID,0,VALID,92.4328,VALID,0,VALID,24.5013,VALID,153,VALID,0.657422,
2010-01-21, 03:07:04,VALID,1002,VALID,0,VALID,92.4405,VALID,0,VALID,24.5013,VALID,144,VALID,0.909375,
2010-01-21, 03:08:04,VALID,1001.95,VALID,0,VALID,92.471,VALID,0,VALID,24.5013,VALID,142,VALID,0.930859,
2010-01-21, 03:09:04,VALID,1001.95,VALID,0,VALID,92.4405,VALID,0,VALID,24.5013,VALID,147,VALID,1.18242,
2010-01-21, 03:10:04,VALID,1001.93,VALID,0,VALID,92.4328,VALID,0,VALID,24.5013,VALID,148,VALID,1.03555,
2010-01-21, 03:11:04,VALID,1001.93,VALID,0,VALID,92.4557,VALID,0,VALID,24.5209,VALID,153,VALID,0.905078,
2010-01-21, 03:12:04,VALID,1001.96,VALID,0,VALID,92.4557,VALID,0,VALID,24.5422,VALID,158,VALID,0.898438,
2010-01-21, 03:13:04,VALID,1001.93,VALID,0,VALID,92.3337,VALID,0,VALID,24.5013,VALID,156,VALID,1.09023,
2010-01-21, 03:14:04,VALID,1001.95,VALID,0,VALID,92.3337,VALID,0,VALID,24.5013,VALID,157,VALID,0.569531,
2010-01-21, 03:15:04,VALID,1001.96,VALID,0,VALID,92.3184,VALID,0,VALID,24.5013,VALID,159,VALID,0.495313,
2010-01-21, 03:16:04,VALID,1001.97,VALID,0,VALID,92.2955,VALID,0,VALID,24.5013,VALID,159,VALID,0.383594,
2010-01-21, 03:17:04,VALID,1002.01,VALID,0,VALID,92.2879,VALID,0,VALID,24.5013,VALID,150,VALID,0.521094,
2010-01-21, 03:18:04,VALID,1002.02,VALID,0,VALID,92.3184,VALID,0,VALID,24.4995,VALID,98,VALID,0.769141,
2010-01-21, 03:19:04,VALID,1002.05,VALID,0,VALID,92.2116,VALID,0,VALID,24.5209,VALID,84,VALID,1.53945,
2010-01-21, 03:20:04,VALID,1002.03,VALID,0,VALID,92.12,VALID,0,VALID,24.4995,VALID,102,VALID,1.13008,
2010-01-21, 03:21:04,VALID,1002.05,VALID,0,VALID,92.12,VALID,0,VALID,24.5013,VALID,105,VALID,0.973828,
2010-01-21, 03:22:04,VALID,1002.02,VALID,0,VALID,92.1048,VALID,0,VALID,24.5209,VALID,115,VALID,1.33672,
2010-01-21, 03:23:04,VALID,1002.08,VALID,0,VALID,92.0895,VALID,0,VALID,24.5209,VALID,116,VALID,1.29883,
2010-01-21, 03:24:04,VALID,1002.1,VALID,0,VALID,92.1811,VALID,0,VALID,24.5404,VALID,111,VALID,1.14453,
2010-01-21, 03:25:04,VALID,1002.08,VALID,0,VALID,92.2421,VALID,0,VALID,24.5599,VALID,103,VALID,1.24727,
2010-01-21, 03:26:04,VALID,1002.11,VALID,0,VALID,92.2192,VALID,0,VALID,24.5599,VALID,114,VALID,1.47383,
2010-01-21, 03:27:04,VALID,1002.11,VALID,0,VALID,92.204,VALID,0,VALID,24.5404,VALID,116,VALID,1.16758,
2010-01-21, 03:28:04,VALID,1002.11,VALID,0,VALID,92.1887,VALID,0,VALID,24.5404,VALID,115,VALID,1.23867,
2010-01-21, 03:29:04,VALID,1002.12,VALID,0,VALID,92.2268,VALID,0,VALID,24.5404,VALID,117,VALID,1.20859,
2010-01-21, 03:30:04,VALID,1002.13,VALID,0,VALID,92.2268,VALID,0,VALID,24.5404,VALID,106,VALID,1.23633,
2010-01-21, 03:31:04,VALID,1002.15,VALID,0,VALID,92.265,VALID,0,VALID,24.5404,VALID,94,VALID,1.75039,
2010-01-21, 03:32:04,VALID,1002.15,VALID,0,VALID,92.2497,VALID,0,VALID,24.5599,VALID,89,VALID,1.5582,
2010-01-21, 03:33:04,VALID,1002.18,VALID,0,VALID,92.2803,VALID,0,VALID,24.5599,VALID,78,VALID,1.22461,
2010-01-21, 03:34:04,VALID,1002.22,VALID,0,VALID,92.2574,VALID,0,VALID,24.5599,VALID,75,VALID,1.31445,
2010-01-21, 03:35:04,VALID,1002.19,VALID,0,VALID,92.2421,VALID,0,VALID,24.5599,VALID,67,VALID,1.00742,
2010-01-21, 03:36:04,VALID,1002.23,VALID,0,VALID,92.1963,VALID,0,VALID,24.5599,VALID,67,VALID,1.45781,
2010-01-21, 03:37:04,VALID,1002.27,VALID,0,VALID,92.1582,VALID,0,VALID,24.5599,VALID,59,VALID,1.55742,
2010-01-21, 03:38:04,VALID,1002.29,VALID,0,VALID,92.1353,VALID,0,VALID,24.5404,VALID,52,VALID,1.61523,
2010-01-21, 03:39:04,VALID,1002.34,VALID,0,VALID,92.0971,VALID,0,VALID,24.5599,VALID,58,VALID,1.91641,
2010-01-21, 03:40:04,VALID,1002.33,VALID,0,VALID,92.2116,VALID,0,VALID,24.5794,VALID,47,VALID,2.37852,
2010-01-21, 03:41:04,VALID,1002.34,VALID,0,VALID,92.2192,VALID,0,VALID,24.5989,VALID,64,VALID,2.17656,
2010-01-21, 03:42:04,VALID,1002.35,VALID,0,VALID,92.2574,VALID,0,VALID,24.5794,VALID,69,VALID,1.67109,
2010-01-21, 03:43:04,VALID,1002.34,VALID,0,VALID,92.3031,VALID,0,VALID,24.5599,VALID,64,VALID,2.09141,
2010-01-21, 03:44:04,VALID,1002.33,VALID,0,VALID,92.3642,VALID,0,VALID,24.5794,VALID,70,VALID,1.71523,
2010-01-21, 03:45:04,VALID,1002.31,VALID,0.5,VALID,92.3489,VALID,0,VALID,24.5794,VALID,66,VALID,2.27422,
2010-01-21, 03:46:04,VALID,1002.33,VALID,0,VALID,92.3794,VALID,0,VALID,24.519,VALID,63,VALID,1.60586,
2010-01-21, 03:47:04,VALID,1002.3,VALID,0,VALID,92.4023,VALID,0,VALID,24.4995,VALID,61,VALID,1.30234,